星链-2364 (STARLINK-2364 )

导读 | 豆包AI

STARLINK-2364是美国太空探索技术公司(SpaceX)星链(Starlink)星座中的卫星,于2021年3月14日发射入轨,归属美国。星链旨在构建全球卫星互联网通信系统,该卫星承担星座组网任务,为全球用户提供低延迟、高速率的宽带互联网接入服务,助力推动全球通信网络覆盖与互联互通发展。

基本信息
目录编号:
47904
目录名称:
STARLINK-2364
国际标识:
2021-021AW
轨道中心:
EARTH
卫星名称:
星链-2364
卫星全名:
星链-2364 (STARLINK-2364 )
卫星状态:
在轨 (已飞行1826 天)
发射日期:
2021-03-14 UTC
国别 :
美国 (US)
星等 :
--
轨道信息
数据来源 国际轨道数据 AOE轨道数据
星历时间 2026-03-13T18:28:13+0800
1天前
查看轨道信息
2026-03-08T03:00:00+0800
6天前
查看轨道信息
半长轴 6853.394km 6853.369km
偏心率 0.0001292 0.0000715
轨道倾角 53.160° 53.151°
近地点辐角 84.341° 96.978°
升交点赤经 237.889° 264.103°
平近点角 275.773° 111.499°
近地点 474.371km 474.741km
远地点 476.143km 475.723km
周期 94.106分钟 94.106分钟
每日圈数 15.30186 15.301946
详细信息
固有亮度:
5
最大亮度:
2.5
卫星平台:
Starlink V1.0
覆盖范围:
全球
运营商:
太空探索技术公司
运营商所在国:
美国
制造商(研发单位):
太空探索技术公司
制造商所在国:
美国
使用方式:
暂无
卫星简介
星链(Starlink)计划是由太空探索技术公司(SpaceX)提出的一个巨型低轨卫星互联网星座项目,计划在2019年至2024年间在太空搭建由约1.2万颗卫星组成的“星链”网络,其中1584颗将部署在地球上空550千米处的近地轨道,并从2020年开始工作。该卫星仍在工作。
2D轨道图
3D轨道图
轨道高度分析图
轨道倾角分析图
轨道综合分析图
查看轨道综合分析图